Time,TemperatureF,DewpointF,PressureIn,WindDirection,WindDirectionDegrees,WindSpeedMPH,WindSpeedGustMPH,Humidity,HourlyPrecipIn,Conditions,Clouds,dailyrainin,SoftwareType,DateUTC
2013-05-22 00:01:00,54.1,33.3,29.77,NW,304,7.5,13.0,44,0.00,,,0.00,WSDL version 420,2013-05-22 07:01:00,
2013-05-22 00:06:00,53.8,32.6,29.77,WNW,300,6.6,14.5,45,0.00,,,0.00,WSDL version 420,2013-05-22 07:06:00,
2013-05-22 00:11:00,53.7,32.3,29.77,NW,325,6.5,14.5,44,0.00,,,0.00,WSDL version 420,2013-05-22 07:11:00,
2013-05-22 00:16:00,53.5,32.2,29.77,North,350,6.1,13.4,45,0.00,,,0.00,WSDL version 420,2013-05-22 07:16:00,
2013-05-22 00:21:00,53.4,33.3,29.77,NW,309,5.4,13.4,47,0.00,,,0.00,WSDL version 420,2013-05-22 07:21:00,
2013-05-22 00:26:00,53.2,33.0,29.77,NNW,330,5.2,10.5,46,0.00,,,0.00,WSDL version 420,2013-05-22 07:26:00,
2013-05-22 00:31:00,53.1,32.8,29.77,NW,318,5.8,10.3,46,0.00,,,0.00,WSDL version 420,2013-05-22 07:31:00,
2013-05-22 00:36:00,52.9,32.9,29.77,NNW,340,6.5,10.3,47,0.00,,,0.00,WSDL version 420,2013-05-22 07:36:00,
2013-05-22 00:41:00,52.7,32.8,29.77,NW,318,5.3,10.7,47,0.00,,,0.00,WSDL version 420,2013-05-22 07:41:00,
2013-05-22 00:46:00,52.5,32.4,29.77,WNW,302,5.4,12.1,46,0.00,,,0.00,WSDL version 420,2013-05-22 07:46:00,
2013-05-22 00:51:00,52.3,32.2,29.77,WNW,295,5.9,12.1,46,0.00,,,0.00,WSDL version 420,2013-05-22 07:51:00,
2013-05-22 00:56:00,52.3,32.6,29.77,North,11,7.1,12.1,46,0.00,,,0.00,WSDL version 420,2013-05-22 07:56:00,
2013-05-22 01:01:00,52.2,32.1,29.77,NW,307,5.3,12.1,46,0.00,,,0.00,WSDL version 420,2013-05-22 08:01:00,
2013-05-22 01:06:00,52.2,32.0,29.77,NW,318,5.5,9.6,46,0.00,,,0.00,WSDL version 420,2013-05-22 08:06:00,
2013-05-22 01:11:00,52.2,32.0,29.77,NW,310,5.2,10.3,46,0.00,,,0.00,WSDL version 420,2013-05-22 08:11:00,
2013-05-22 01:16:00,52.2,32.0,29.77,NW,326,4.9,10.3,46,0.00,,,0.00,WSDL version 420,2013-05-22 08:16:00,
2013-05-22 01:21:00,52.0,31.9,29.77,NW,309,5.6,13.0,46,0.00,,,0.00,WSDL version 420,2013-05-22 08:21:00,
2013-05-22 01:26:00,51.9,31.8,29.77,NNW,328,5.5,13.0,46,0.00,,,0.00,WSDL version 420,2013-05-22 08:26:00,
2013-05-22 01:31:00,51.8,31.7,29.77,NNW,331,6.4,11.0,46,0.00,,,0.00,WSDL version 420,2013-05-22 08:31:00,
2013-05-22 01:36:00,51.8,31.5,29.77,NW,315,6.9,11.0,45,0.00,,,0.00,WSDL version 420,2013-05-22 08:36:00,
2013-05-22 01:41:00,51.6,31.5,29.77,NNW,345,6.6,12.3,46,0.00,,,0.00,WSDL version 420,2013-05-22 08:41:00,
2013-05-22 01:46:00,51.6,31.3,29.77,NNW,332,5.8,12.3,46,0.00,,,0.00,WSDL version 420,2013-05-22 08:46:00,
2013-05-22 01:51:00,51.6,31.5,29.77,NNW,340,5.9,11.0,46,0.00,,,0.00,WSDL version 420,2013-05-22 08:51:00,
2013-05-22 01:56:00,51.6,31.5,29.77,NW,318,3.9,10.3,46,0.00,,,0.00,WSDL version 420,2013-05-22 08:56:00,
2013-05-22 02:01:00,51.4,31.7,29.77,WNW,303,6.3,10.3,46,0.00,,,0.00,WSDL version 420,2013-05-22 09:01:00,
2013-05-22 02:06:00,51.4,31.3,29.77,NW,321,7.1,13.2,46,0.00,,,0.00,WSDL version 420,2013-05-22 09:06:00,
2013-05-22 02:11:00,51.4,31.3,29.77,NW,313,7.0,13.2,46,0.00,,,0.00,WSDL version 420,2013-05-22 09:11:00,
2013-05-22 02:16:00,51.3,31.2,29.80,NW,320,4.7,10.3,46,0.00,,,0.00,WSDL version 420,2013-05-22 09:16:00,
2013-05-22 02:21:00,51.2,31.2,29.80,NW,326,4.9,9.6,46,0.00,,,0.00,WSDL version 420,2013-05-22 09:21:00,
2013-05-22 02:26:00,51.1,30.7,29.80,NNW,345,7.2,11.0,45,0.00,,,0.00,WSDL version 420,2013-05-22 09:26:00,
2013-05-22 02:31:00,51.2,30.7,29.80,NNW,331,6.0,11.0,45,0.00,,,0.00,WSDL version 420,2013-05-22 09:31:00,
2013-05-22 02:36:00,51.1,30.5,29.80,NW,323,4.6,10.5,45,0.00,,,0.00,WSDL version 420,2013-05-22 09:36:00,
2013-05-22 02:41:00,51.1,30.5,29.80,NNW,343,6.3,14.8,45,0.00,,,0.00,WSDL version 420,2013-05-22 09:41:00,
2013-05-22 02:46:00,51.1,30.5,29.77,NNW,330,4.7,14.8,45,0.00,,,0.00,WSDL version 420,2013-05-22 09:46:00,
2013-05-22 02:51:00,50.9,30.4,29.77,NNW,340,7.1,12.3,45,0.00,,,0.00,WSDL version 420,2013-05-22 09:51:00,
2013-05-22 02:56:00,50.9,30.3,29.77,NW,305,5.6,12.3,45,0.00,,,0.00,WSDL version 420,2013-05-22 09:56:00,
2013-05-22 03:01:00,50.9,30.3,29.80,NW,323,4.9,9.4,45,0.00,,,0.00,WSDL version 420,2013-05-22 10:01:00,
2013-05-22 03:06:00,50.8,29.7,29.80,NNW,335,4.6,9.4,44,0.00,,,0.00,WSDL version 420,2013-05-22 10:06:00,
2013-05-22 03:11:00,50.7,29.6,29.80,NW,320,5.3,11.0,44,0.00,,,0.00,WSDL version 420,2013-05-22 10:11:00,
2013-05-22 03:16:00,50.5,29.5,29.77,NNW,329,4.8,11.0,44,0.00,,,0.00,WSDL version 420,2013-05-22 10:16:00,
2013-05-22 03:21:00,50.5,29.5,29.77,NW,321,8.3,12.5,44,0.00,,,0.00,WSDL version 420,2013-05-22 10:21:00,
2013-05-22 03:26:00,50.5,29.7,29.77,NNW,338,6.4,12.8,45,0.00,,,0.00,WSDL version 420,2013-05-22 10:26:00,
2013-05-22 03:31:00,50.5,29.6,29.80,NNW,340,6.3,12.8,44,0.00,,,0.00,WSDL version 420,2013-05-22 10:31:00,
2013-05-22 03:36:00,50.4,29.3,29.80,North,355,5.5,10.7,44,0.00,,,0.00,WSDL version 420,2013-05-22 10:36:00,
2013-05-22 03:41:00,50.3,29.3,29.80,NNW,335,5.6,9.8,44,0.00,,,0.00,WSDL version 420,2013-05-22 10:41:00,
2013-05-22 03:46:00,50.2,28.9,29.80,NW,323,4.0,9.8,44,0.00,,,0.00,WSDL version 420,2013-05-22 10:46:00,
2013-05-22 03:51:00,50.2,29.0,29.80,NW,326,4.2,11.9,44,0.00,,,0.00,WSDL version 420,2013-05-22 10:51:00,
2013-05-22 03:56:00,50.2,29.5,29.80,North,358,5.6,11.9,45,0.00,,,0.00,WSDL version 420,2013-05-22 10:56:00,
2013-05-22 04:01:00,50.2,29.7,29.80,NW,323,5.0,8.7,45,0.00,,,0.00,WSDL version 420,2013-05-22 11:01:00,
2013-05-22 04:06:00,50.0,29.5,29.80,NNW,332,3.2,7.6,45,0.00,,,0.00,WSDL version 420,2013-05-22 11:06:00,
2013-05-22 04:11:00,50.0,29.5,29.80,NW,320,4.7,8.1,45,0.00,,,0.00,WSDL version 420,2013-05-22 11:11:00,
2013-05-22 04:16:00,50.0,29.4,29.80,NNW,332,4.6,10.1,44,0.00,,,0.00,WSDL version 420,2013-05-22 11:16:00,
2013-05-22 04:21:00,49.9,29.4,29.80,NW,323,4.8,10.1,45,0.00,,,0.00,WSDL version 420,2013-05-22 11:21:00,
2013-05-22 04:26:00,49.8,29.5,29.80,NW,315,3.6,9.8,46,0.00,,,0.00,WSDL version 420,2013-05-22 11:26:00,
2013-05-22 04:31:00,49.8,29.9,29.80,NNW,335,5.3,9.8,46,0.00,,,0.00,WSDL version 420,2013-05-22 11:31:00,
2013-05-22 04:36:00,49.8,29.9,29.80,NNW,348,4.8,10.3,46,0.00,,,0.00,WSDL version 420,2013-05-22 11:36:00,
2013-05-22 04:41:00,49.8,29.7,29.80,NNW,332,5.5,12.1,45,0.00,,,0.00,WSDL version 420,2013-05-22 11:41:00,
2013-05-22 04:46:00,49.6,28.9,29.80,NNW,333,3.9,12.1,45,0.00,,,0.00,WSDL version 420,2013-05-22 11:46:00,
2013-05-22 04:51:00,49.6,29.1,29.80,North,354,4.8,8.7,45,0.00,,,0.00,WSDL version 420,2013-05-22 11:51:00,
2013-05-22 04:56:00,49.5,29.0,29.80,North,8,4.2,11.0,45,0.00,,,0.00,WSDL version 420,2013-05-22 11:56:00,
2013-05-22 05:01:00,49.5,28.5,29.80,NNW,338,5.0,11.0,44,0.00,,,0.00,WSDL version 420,2013-05-22 12:01:00,
2013-05-22 05:06:00,49.3,28.4,29.80,NW,310,4.3,7.6,44,0.00,,,0.00,WSDL version 420,2013-05-22 12:06:00,
2013-05-22 05:11:00,49.1,28.2,29.80,NW,321,3.5,8.5,44,0.00,,,0.00,WSDL version 420,2013-05-22 12:11:00,
2013-05-22 05:16:00,49.0,28.2,29.80,NW,309,4.2,8.5,44,0.00,,,0.00,WSDL version 420,2013-05-22 12:16:00,
2013-05-22 05:21:00,48.9,28.0,29.80,NW,315,3.9,11.0,44,0.00,,,0.00,WSDL version 420,2013-05-22 12:21:00,
2013-05-22 05:26:00,48.9,28.0,29.80,NW,309,4.0,11.0,44,0.00,,,0.00,WSDL version 420,2013-05-22 12:26:00,
2013-05-22 05:31:00,48.9,28.0,29.80,NNW,338,4.1,8.1,45,0.00,,,0.00,WSDL version 420,2013-05-22 12:31:00,
2013-05-22 05:36:00,48.9,28.3,29.80,NW,321,4.0,8.1,44,0.00,,,0.00,WSDL version 420,2013-05-22 12:36:00,
2013-05-22 05:41:00,48.7,27.7,29.80,NNW,348,3.6,8.5,43,0.00,,,0.00,WSDL version 420,2013-05-22 12:41:00,
2013-05-22 05:46:00,48.7,27.3,29.80,NW,326,3.9,11.9,43,0.00,,,0.00,WSDL version 420,2013-05-22 12:46:00,
2013-05-22 05:51:00,48.7,27.3,29.80,NW,325,4.0,11.9,43,0.00,,,0.00,WSDL version 420,2013-05-22 12:51:00,
2013-05-22 05:56:00,48.7,27.3,29.80,NW,308,4.6,6.5,43,0.00,,,0.00,WSDL version 420,2013-05-22 12:56:00,
2013-05-22 06:01:00,48.7,27.3,29.80,NW,312,3.7,6.5,43,0.00,,,0.00,WSDL version 420,2013-05-22 13:01:00,
2013-05-22 06:06:00,48.7,27.3,29.80,North,353,4.4,6.0,43,0.00,,,0.00,WSDL version 420,2013-05-22 13:06:00,
2013-05-22 06:11:00,48.6,27.0,29.80,NW,321,4.4,7.8,43,0.00,,,0.00,WSDL version 420,2013-05-22 13:11:00,
2013-05-22 06:16:00,48.6,27.1,29.80,NW,315,3.7,8.7,43,0.00,,,0.00,WSDL version 420,2013-05-22 13:16:00,
2013-05-22 06:21:00,48.6,27.1,29.80,NW,315,5.3,8.7,43,0.00,,,0.00,WSDL version 420,2013-05-22 13:21:00,
2013-05-22 06:26:00,48.6,27.2,29.80,NW,304,3.8,7.8,43,0.00,,,0.00,WSDL version 420,2013-05-22 13:26:00,
2013-05-22 06:31:00,48.6,27.1,29.80,NW,313,4.3,8.5,43,0.00,,,0.00,WSDL version 420,2013-05-22 13:31:00,
2013-05-22 06:36:00,48.6,27.1,29.80,NW,304,4.7,9.6,43,0.00,,,0.00,WSDL version 420,2013-05-22 13:36:00,
2013-05-22 06:41:00,48.6,27.1,29.80,NW,325,5.0,9.6,43,0.00,,,0.00,WSDL version 420,2013-05-22 13:41:00,
2013-05-22 06:46:00,48.7,27.4,29.80,NNW,332,4.4,8.1,44,0.00,,,0.00,WSDL version 420,2013-05-22 13:46:00,
2013-05-22 06:51:00,48.7,27.8,29.80,NW,307,3.4,7.2,44,0.00,,,0.00,WSDL version 420,2013-05-22 13:51:00,
2013-05-22 06:56:00,48.9,28.3,29.80,NNW,343,3.6,7.2,44,0.00,,,0.00,WSDL version 420,2013-05-22 13:56:00,
2013-05-22 07:01:00,49.0,27.9,29.80,North,354,5.6,10.5,43,0.00,,,0.00,WSDL version 420,2013-05-22 14:01:00,
2013-05-22 07:06:00,49.2,28.2,29.80,NNW,338,5.7,10.5,44,0.00,,,0.00,WSDL version 420,2013-05-22 14:06:00,
2013-05-22 07:11:00,49.3,28.4,29.80,NNW,343,3.7,7.8,44,0.00,,,0.00,WSDL version 420,2013-05-22 14:11:00,
2013-05-22 07:16:00,49.5,28.6,29.83,NNW,332,6.3,10.1,44,0.00,,,0.00,WSDL version 420,2013-05-22 14:16:00,
2013-05-22 07:21:00,49.6,28.3,29.83,NNW,344,5.0,10.1,44,0.00,,,0.00,WSDL version 420,2013-05-22 14:21:00,
2013-05-22 07:26:00,49.9,29.0,29.83,NW,315,3.7,7.8,44,0.00,,,0.00,WSDL version 420,2013-05-22 14:26:00,
2013-05-22 07:31:00,50.0,28.9,29.83,NW,325,4.9,8.5,44,0.00,,,0.00,WSDL version 420,2013-05-22 14:31:00,
2013-05-22 07:36:00,50.1,29.0,29.83,NNW,343,3.8,8.5,44,0.00,,,0.00,WSDL version 420,2013-05-22 14:36:00,
2013-05-22 07:41:00,50.2,28.7,29.83,NW,323,5.8,8.1,43,0.00,,,0.00,WSDL version 420,2013-05-22 14:41:00,
2013-05-22 07:46:00,50.2,28.9,29.83,North,352,6.7,10.7,43,0.00,,,0.00,WSDL version 420,2013-05-22 14:46:00,
2013-05-22 07:51:00,50.2,28.3,29.83,NNW,340,5.1,10.7,43,0.00,,,0.00,WSDL version 420,2013-05-22 14:51:00,
2013-05-22 07:56:00,50.4,28.3,29.83,NNW,335,6.7,10.7,42,0.00,,,0.00,WSDL version 420,2013-05-22 14:56:00,
2013-05-22 08:01:00,50.5,28.3,29.83,North,355,7.6,12.5,42,0.00,,,0.00,WSDL version 420,2013-05-22 15:01:00,
2013-05-22 08:06:00,50.7,28.5,29.83,North,350,7.0,12.5,42,0.00,,,0.00,WSDL version 420,2013-05-22 15:06:00,
2013-05-22 08:11:00,51.1,29.3,29.83,North,357,4.6,10.7,43,0.00,,,0.00,WSDL version 420,2013-05-22 15:11:00,
2013-05-22 08:16:00,51.4,29.4,29.83,NNW,341,6.0,12.3,42,0.00,,,0.00,WSDL version 420,2013-05-22 15:16:00,
2013-05-22 08:21:00,51.4,28.9,29.83,NW,326,6.2,12.8,41,0.00,,,0.00,WSDL version 420,2013-05-22 15:21:00,
2013-05-22 08:26:00,51.3,28.9,29.83,NNW,329,5.8,12.8,42,0.00,,,0.00,WSDL version 420,2013-05-22 15:26:00,
2013-05-22 08:31:00,51.9,29.3,29.83,NNW,332,4.4,9.4,41,0.00,,,0.00,WSDL version 420,2013-05-22 15:31:00,
2013-05-22 08:36:00,51.8,28.9,29.83,NNW,340,7.1,11.0,41,0.00,,,0.00,WSDL version 420,2013-05-22 15:36:00,
2013-05-22 08:41:00,52.1,29.1,29.83,NNW,329,4.8,11.0,41,0.00,,,0.00,WSDL version 420,2013-05-22 15:41:00,
2013-05-22 08:46:00,52.7,29.7,29.83,NW,326,4.1,8.5,41,0.00,,,0.00,WSDL version 420,2013-05-22 15:46:00,
2013-05-22 08:51:00,53.1,29.9,29.83,NNW,343,3.8,7.4,40,0.00,,,0.00,WSDL version 420,2013-05-22 15:51:00,
2013-05-22 08:56:00,53.3,29.6,29.83,NNW,329,4.9,7.8,40,0.00,,,0.00,WSDL version 420,2013-05-22 15:56:00,
2013-05-22 09:01:00,53.5,29.4,29.83,NW,315,5.7,9.6,39,0.00,,,0.00,WSDL version 420,2013-05-22 16:01:00,
2013-05-22 09:06:00,53.8,29.4,29.83,WNW,296,4.5,9.6,39,0.00,,,0.00,WSDL version 420,2013-05-22 16:06:00,
2013-05-22 09:11:00,54.0,29.1,29.83,NNW,338,4.8,8.1,38,0.00,,,0.00,WSDL version 420,2013-05-22 16:11:00,
2013-05-22 09:16:00,54.4,29.3,29.83,North,355,4.1,8.9,38,0.00,,,0.00,WSDL version 420,2013-05-22 16:16:00,
2013-05-22 09:21:00,54.7,29.6,29.83,WNW,302,3.6,8.9,38,0.00,,,0.00,WSDL version 420,2013-05-22 16:21:00,
2013-05-22 09:26:00,55.0,29.9,29.83,NW,308,5.3,8.7,38,0.00,,,0.00,WSDL version 420,2013-05-22 16:26:00,
2013-05-22 09:31:00,55.6,30.1,29.80,WNW,293,5.2,8.7,37,0.00,,,0.00,WSDL version 420,2013-05-22 16:31:00,
2013-05-22 09:36:00,55.9,30.1,29.80,NNW,333,4.8,8.1,37,0.00,,,0.00,WSDL version 420,2013-05-22 16:36:00,
2013-05-22 09:41:00,56.3,30.2,29.80,NNW,335,3.9,8.1,36,0.00,,,0.00,WSDL version 420,2013-05-22 16:41:00,
2013-05-22 09:46:00,56.6,30.0,29.83,NW,323,4.6,6.3,36,0.00,,,0.00,WSDL version 420,2013-05-22 16:46:00,
2013-05-22 09:51:00,57.1,30.5,29.83,NW,312,4.8,7.6,36,0.00,,,0.00,WSDL version 420,2013-05-22 16:51:00,
2013-05-22 09:56:00,57.2,30.2,29.83,NW,315,5.3,7.8,35,0.00,,,0.00,WSDL version 420,2013-05-22 16:56:00,
2013-05-22 10:01:00,57.5,30.1,29.80,NW,308,4.8,8.1,35,0.00,,,0.00,WSDL version 420,2013-05-22 17:01:00,
2013-05-22 10:06:00,58.0,30.5,29.80,NW,323,4.3,8.1,35,0.00,,,0.00,WSDL version 420,2013-05-22 17:06:00,
2013-05-22 10:11:00,58.0,30.6,29.80,NNW,328,4.8,7.2,35,0.00,,,0.00,WSDL version 420,2013-05-22 17:11:00,
2013-05-22 10:16:00,58.5,30.9,29.80,NNW,331,4.4,6.5,35,0.00,,,0.00,WSDL version 420,2013-05-22 17:16:00,
2013-05-22 10:21:00,58.8,31.1,29.80,NW,321,4.7,8.5,35,0.00,,,0.00,WSDL version 420,2013-05-22 17:21:00,
2013-05-22 10:26:00,58.7,30.4,29.80,NW,318,4.0,8.7,34,0.00,,,0.00,WSDL version 420,2013-05-22 17:26:00,
2013-05-22 10:31:00,59.0,30.4,29.80,NW,312,4.3,8.7,34,0.00,,,0.00,WSDL version 420,2013-05-22 17:31:00,
2013-05-22 10:36:00,59.4,29.9,29.80,NNW,338,4.6,9.8,32,0.00,,,0.00,WSDL version 420,2013-05-22 17:36:00,
2013-05-22 10:41:00,59.9,30.7,29.80,West,278,5.5,9.8,33,0.00,,,0.00,WSDL version 420,2013-05-22 17:41:00,
2013-05-22 10:46:00,60.2,31.5,29.80,WNW,290,5.1,7.2,33,0.00,,,0.00,WSDL version 420,2013-05-22 17:46:00,
2013-05-22 10:51:00,60.2,30.4,29.80,WNW,284,3.5,7.2,32,0.00,,,0.00,WSDL version 420,2013-05-22 17:51:00,
2013-05-22 10:56:00,60.6,30.6,29.80,NW,308,4.1,8.1,32,0.00,,,0.00,WSDL version 420,2013-05-22 17:56:00,
2013-05-22 11:01:00,60.7,30.3,29.80,WNW,298,4.6,8.1,32,0.00,,,0.00,WSDL version 420,2013-05-22 18:01:00,
2013-05-22 11:06:00,61.0,29.5,29.80,North,352,4.6,6.5,29,0.00,,,0.00,WSDL version 420,2013-05-22 18:06:00,
2013-05-22 11:11:00,61.6,30.2,29.80,WNW,289,3.8,6.5,30,0.00,,,0.00,WSDL version 420,2013-05-22 18:11:00,
2013-05-22 11:16:00,62.0,30.0,29.80,NNW,329,3.5,7.2,30,0.00,,,0.00,WSDL version 420,2013-05-22 18:16:00,
2013-05-22 11:21:00,62.6,30.8,29.80,NW,318,3.2,7.2,30,0.00,,,0.00,WSDL version 420,2013-05-22 18:21:00,
2013-05-22 11:26:00,63.0,30.6,29.80,NNW,346,3.4,7.6,30,0.00,,,0.00,WSDL version 420,2013-05-22 18:26:00,
2013-05-22 11:31:00,63.0,30.3,29.80,NW,313,4.8,7.6,29,0.00,,,0.00,WSDL version 420,2013-05-22 18:31:00,
2013-05-22 11:36:00,63.5,30.7,29.80,WNW,298,5.3,7.6,29,0.00,,,0.00,WSDL version 420,2013-05-22 18:36:00,
2013-05-22 11:41:00,63.4,29.7,29.80,WNW,298,5.1,8.5,28,0.00,,,0.00,WSDL version 420,2013-05-22 18:41:00,
2013-05-22 11:46:00,63.8,29.9,29.80,WNW,287,4.5,8.5,27,0.00,,,0.00,WSDL version 420,2013-05-22 18:46:00,
2013-05-22 11:51:00,63.6,29.4,29.80,WNW,298,3.7,7.6,28,0.00,,,0.00,WSDL version 420,2013-05-22 18:51:00,
2013-05-22 11:56:00,64.0,29.7,29.80,NW,318,3.4,8.1,27,0.00,,,0.00,WSDL version 420,2013-05-22 18:56:00,
2013-05-22 12:01:00,64.6,29.9,29.77,NW,307,2.8,8.1,27,0.00,,,0.00,WSDL version 420,2013-05-22 19:01:00,
2013-05-22 12:06:00,64.7,29.8,29.77,NW,304,3.4,7.2,27,0.00,,,0.00,WSDL version 420,2013-05-22 19:06:00,
2013-05-22 12:11:00,64.7,28.9,29.77,NNW,340,3.4,7.2,25,0.00,,,0.00,WSDL version 420,2013-05-22 19:11:00,
2013-05-22 12:16:00,64.7,28.6,29.77,NNW,340,3.0,7.2,25,0.00,,,0.00,WSDL version 420,2013-05-22 19:16:00,
2013-05-22 12:21:00,64.8,28.0,29.77,NW,313,3.0,7.2,25,0.00,,,0.00,WSDL version 420,2013-05-22 19:21:00,
2013-05-22 12:26:00,65.7,28.8,29.77,North,352,2.7,4.3,25,0.00,,,0.00,WSDL version 420,2013-05-22 19:26:00,
2013-05-22 12:31:00,65.6,28.5,29.77,North,355,4.9,8.5,24,0.00,,,0.00,WSDL version 420,2013-05-22 19:31:00,
2013-05-22 12:36:00,65.3,28.4,29.77,NNW,328,3.8,8.5,25,0.00,,,0.00,WSDL version 420,2013-05-22 19:36:00,
2013-05-22 12:41:00,65.6,28.5,29.77,NW,305,4.2,8.1,25,0.00,,,0.00,WSDL version 420,2013-05-22 19:41:00,
2013-05-22 12:46:00,66.0,29.0,29.77,WNW,300,4.8,8.7,25,0.00,,,0.00,WSDL version 420,2013-05-22 19:46:00,
2013-05-22 12:51:00,66.3,29.7,29.77,West,280,5.1,8.7,25,0.00,,,0.00,WSDL version 420,2013-05-22 19:51:00,
2013-05-22 12:56:00,67.0,31.3,29.77,West,270,2.9,11.9,27,0.00,,,0.00,WSDL version 420,2013-05-22 19:56:00,
2013-05-22 13:01:00,67.6,31.7,29.77,West,278,6.2,11.9,27,0.00,,,0.00,WSDL version 420,2013-05-22 20:01:00,
2013-05-22 13:06:00,67.6,32.3,29.77,NW,318,4.9,9.8,26,0.00,,,0.00,WSDL version 420,2013-05-22 20:06:00,
2013-05-22 13:11:00,68.0,32.8,29.77,South,174,3.4,7.6,27,0.00,,,0.00,WSDL version 420,2013-05-22 20:11:00,
2013-05-22 13:16:00,67.8,32.4,29.77,NW,310,4.4,10.3,27,0.00,,,0.00,WSDL version 420,2013-05-22 20:16:00,
2013-05-22 13:21:00,67.3,31.4,29.77,NW,315,4.7,10.3,27,0.00,,,0.00,WSDL version 420,2013-05-22 20:21:00,
2013-05-22 13:26:00,67.7,32.3,29.77,WNW,293,7.1,11.0,26,0.00,,,0.00,WSDL version 420,2013-05-22 20:26:00,
2013-05-22 13:31:00,67.4,32.1,29.74,WNW,295,6.2,11.0,26,0.00,,,0.00,WSDL version 420,2013-05-22 20:31:00,
2013-05-22 13:36:00,67.6,32.5,29.74,NE,53,2.2,9.8,27,0.00,,,0.00,WSDL version 420,2013-05-22 20:36:00,
2013-05-22 13:41:00,68.1,32.2,29.74,WNW,295,6.3,11.0,26,0.00,,,0.00,WSDL version 420,2013-05-22 20:41:00,
2013-05-22 13:46:00,67.6,32.0,29.74,WSW,242,3.5,11.2,27,0.00,,,0.00,WSDL version 420,2013-05-22 20:46:00,
2013-05-22 13:51:00,67.9,32.0,29.74,NW,312,6.9,12.1,26,0.00,,,0.00,WSDL version 420,2013-05-22 20:51:00,
2013-05-22 13:56:00,67.2,31.2,29.74,West,278,7.9,13.2,26,0.00,,,0.00,WSDL version 420,2013-05-22 20:56:00,
2013-05-22 14:01:00,67.0,31.1,29.74,NW,309,5.6,13.2,27,0.00,,,0.00,WSDL version 420,2013-05-22 21:01:00,
2013-05-22 14:06:00,68.0,32.3,29.74,WNW,298,5.5,10.3,26,0.00,,,0.00,WSDL version 420,2013-05-22 21:06:00,
2013-05-22 14:11:00,67.5,31.4,29.74,NW,307,5.5,10.3,26,0.00,,,0.00,WSDL version 420,2013-05-22 21:11:00,
2013-05-22 14:16:00,67.1,31.1,29.74,WNW,287,7.3,13.6,26,0.00,,,0.00,WSDL version 420,2013-05-22 21:16:00,
2013-05-22 14:21:00,67.3,31.6,29.74,WNW,295,5.1,13.6,27,0.00,,,0.00,WSDL version 420,2013-05-22 21:21:00,
2013-05-22 14:26:00,68.2,32.1,29.74,WNW,293,6.8,10.5,26,0.00,,,0.00,WSDL version 420,2013-05-22 21:26:00,
2013-05-22 14:31:00,67.6,31.9,29.74,West,275,5.7,11.0,27,0.00,,,0.00,WSDL version 420,2013-05-22 21:31:00,
2013-05-22 14:36:00,68.4,32.2,29.74,North,360,4.1,11.0,26,0.00,,,0.00,WSDL version 420,2013-05-22 21:36:00,
2013-05-22 14:41:00,69.0,33.0,29.74,North,352,6.2,8.1,26,0.00,,,0.00,WSDL version 420,2013-05-22 21:41:00,
2013-05-22 14:46:00,69.1,32.8,29.74,NW,309,3.9,8.1,26,0.00,,,0.00,WSDL version 420,2013-05-22 21:46:00,
2013-05-22 14:51:00,68.8,32.5,29.74,NW,315,4.9,7.8,26,0.00,,,0.00,WSDL version 420,2013-05-22 21:51:00,
2013-05-22 14:56:00,68.5,31.8,29.74,West,280,6.1,10.7,25,0.00,,,0.00,WSDL version 420,2013-05-22 21:56:00,
2013-05-22 15:01:00,67.7,31.0,29.74,WNW,293,6.5,10.7,26,0.00,,,0.00,WSDL version 420,2013-05-22 22:01:00,
2013-05-22 15:06:00,67.4,31.2,29.74,NW,315,6.9,12.1,26,0.00,,,0.00,WSDL version 420,2013-05-22 22:06:00,
2013-05-22 15:11:00,67.5,31.8,29.74,NW,323,5.6,12.1,27,0.00,,,0.00,WSDL version 420,2013-05-22 22:11:00,
2013-05-22 15:16:00,67.1,32.0,29.74,WNW,298,6.8,11.4,27,0.00,,,0.00,WSDL version 420,2013-05-22 22:16:00,
2013-05-22 15:21:00,67.1,31.6,29.74,WNW,301,8.2,12.5,26,0.00,,,0.00,WSDL version 420,2013-05-22 22:21:00,
2013-05-22 15:26:00,66.6,31.2,29.74,NW,318,6.0,12.5,27,0.00,,,0.00,WSDL version 420,2013-05-22 22:26:00,
2013-05-22 15:31:00,67.0,32.0,29.74,West,278,7.1,11.9,27,0.00,,,0.00,WSDL version 420,2013-05-22 22:31:00,
2013-05-22 15:36:00,67.0,31.9,29.74,WNW,300,5.7,11.9,27,0.00,,,0.00,WSDL version 420,2013-05-22 22:36:00,
2013-05-22 15:41:00,66.9,31.9,29.74,WNW,298,6.9,10.1,27,0.00,,,0.00,WSDL version 420,2013-05-22 22:41:00,
2013-05-22 15:46:00,67.1,32.0,29.74,NW,307,6.9,10.1,27,0.00,,,0.00,WSDL version 420,2013-05-22 22:46:00,
2013-05-22 15:51:00,67.1,32.1,29.74,WNW,298,6.9,12.8,27,0.00,,,0.00,WSDL version 420,2013-05-22 22:51:00,
2013-05-22 15:56:00,67.6,33.3,29.74,WNW,298,5.8,12.8,28,0.00,,,0.00,WSDL version 420,2013-05-22 22:56:00,
2013-05-22 16:01:00,68.2,33.9,29.71,NW,318,5.0,12.5,28,0.00,,,0.00,WSDL version 420,2013-05-22 23:01:00,
2013-05-22 16:06:00,67.7,33.9,29.71,NW,304,6.5,12.5,29,0.00,,,0.00,WSDL version 420,2013-05-22 23:06:00,
2013-05-22 16:11:00,67.5,34.2,29.71,WNW,287,6.9,12.3,29,0.00,,,0.00,WSDL version 420,2013-05-22 23:11:00,
2013-05-22 16:16:00,66.7,33.3,29.71,WNW,285,9.1,13.0,29,0.00,,,0.00,WSDL version 420,2013-05-22 23:16:00,
2013-05-22 16:22:00,66.4,33.3,29.71,WNW,298,5.3,14.1,30,0.00,,,0.00,WSDL version 420,2013-05-22 23:22:00,
2013-05-22 16:27:00,66.6,34.1,29.71,NW,309,5.5,14.1,30,0.00,,,0.00,WSDL version 420,2013-05-22 23:27:00,
2013-05-22 16:32:00,66.3,33.9,29.71,WNW,295,5.8,14.3,30,0.00,,,0.00,WSDL version 420,2013-05-22 23:32:00,
2013-05-22 16:37:00,66.4,34.1,29.71,WNW,298,6.1,14.3,30,0.00,,,0.00,WSDL version 420,2013-05-22 23:37:00,
2013-05-22 16:42:00,65.7,33.5,29.71,North,3,5.7,13.2,30,0.00,,,0.00,WSDL version 420,2013-05-22 23:42:00,
2013-05-22 16:47:00,66.0,33.7,29.71,WNW,290,5.5,12.5,30,0.00,,,0.00,WSDL version 420,2013-05-22 23:47:00,
2013-05-22 16:52:00,66.1,34.3,29.71,NW,318,5.7,12.3,31,0.00,,,0.00,WSDL version 420,2013-05-22 23:52:00,
2013-05-22 16:57:00,66.2,34.7,29.71,NW,307,5.7,13.0,31,0.00,,,0.00,WSDL version 420,2013-05-22 23:57:00,
2013-05-22 17:02:00,66.2,34.7,29.71,NW,305,6.6,13.0,31,0.00,,,0.00,WSDL version 420,2013-05-23 00:02:00,
2013-05-22 17:07:00,65.9,34.1,29.71,NW,310,7.0,11.0,30,0.00,,,0.00,WSDL version 420,2013-05-23 00:07:00,
2013-05-22 17:12:00,65.3,33.8,29.71,NW,315,7.4,12.3,31,0.00,,,0.00,WSDL version 420,2013-05-23 00:12:00,
2013-05-22 17:17:00,65.0,33.7,29.71,NW,312,6.7,12.3,31,0.00,,,0.00,WSDL version 420,2013-05-23 00:17:00,
2013-05-22 17:22:00,65.1,34.6,29.71,WNW,303,7.7,15.2,32,0.00,,,0.00,WSDL version 420,2013-05-23 00:22:00,
2013-05-22 17:27:00,65.2,35.0,29.71,WSW,239,4.5,15.2,33,0.00,,,0.00,WSDL version 420,2013-05-23 00:27:00,
2013-05-22 17:32:00,64.8,34.4,29.71,NW,305,8.9,14.3,32,0.00,,,0.00,WSDL version 420,2013-05-23 00:32:00,
2013-05-22 17:37:00,64.3,34.6,29.71,WNW,295,6.9,14.3,33,0.00,,,0.00,WSDL version 420,2013-05-23 00:37:00,
2013-05-22 17:42:00,64.2,34.5,29.71,WNW,290,7.9,12.5,33,0.00,,,0.00,WSDL version 420,2013-05-23 00:42:00,
2013-05-22 17:47:00,64.1,34.4,29.71,NW,308,6.6,12.5,33,0.00,,,0.00,WSDL version 420,2013-05-23 00:47:00,
2013-05-22 17:52:00,64.2,34.5,29.71,WNW,289,7.0,12.3,33,0.00,,,0.00,WSDL version 420,2013-05-23 00:52:00,
2013-05-22 17:57:00,64.1,35.0,29.71,WNW,290,4.7,10.7,34,0.00,,,0.00,WSDL version 420,2013-05-23 00:57:00,
2013-05-22 18:02:00,64.1,35.0,29.71,WNW,301,6.8,14.3,34,0.00,,,0.00,WSDL version 420,2013-05-23 01:02:00,
2013-05-22 18:07:00,64.1,35.2,29.71,NNW,338,6.8,14.3,34,0.00,,,0.00,WSDL version 420,2013-05-23 01:07:00,
2013-05-22 18:12:00,63.4,34.6,29.71,NW,312,9.1,15.4,34,0.00,,,0.00,WSDL version 420,2013-05-23 01:12:00,
2013-05-22 18:17:00,63.3,34.5,29.71,NW,315,5.8,15.4,34,0.00,,,0.00,WSDL version 420,2013-05-23 01:17:00,
2013-05-22 18:22:00,63.8,34.9,29.71,NNW,330,4.8,10.1,34,0.00,,,0.00,WSDL version 420,2013-05-23 01:22:00,
2013-05-22 18:27:00,63.6,34.9,29.71,WNW,283,6.8,11.9,34,0.00,,,0.00,WSDL version 420,2013-05-23 01:27:00,
2013-05-22 18:32:00,63.5,35.0,29.71,NW,307,4.8,11.9,35,0.00,,,0.00,WSDL version 420,2013-05-23 01:32:00,
2013-05-22 18:37:00,63.0,35.0,29.71,NW,307,7.3,14.5,35,0.00,,,0.00,WSDL version 420,2013-05-23 01:37:00,
2013-05-22 18:42:00,61.7,33.8,29.71,NW,308,10.6,14.8,35,0.00,,,0.00,WSDL version 420,2013-05-23 01:42:00,
2013-05-22 18:47:00,61.3,34.2,29.71,WNW,301,6.3,14.8,36,0.00,,,0.00,WSDL version 420,2013-05-23 01:47:00,
2013-05-22 18:52:00,60.9,34.2,29.71,NW,315,6.5,12.1,37,0.00,,,0.00,WSDL version 420,2013-05-23 01:52:00,
2013-05-22 18:57:00,61.2,34.7,29.71,WNW,303,5.3,10.7,37,0.00,,,0.00,WSDL version 420,2013-05-23 01:57:00,
2013-05-22 19:02:00,61.2,34.7,29.68,NNW,335,5.7,13.2,37,0.00,,,0.00,WSDL version 420,2013-05-23 02:02:00,
2013-05-22 19:07:00,60.8,34.9,29.68,WNW,287,6.8,13.2,38,0.00,,,0.00,WSDL version 420,2013-05-23 02:07:00,
2013-05-22 19:12:00,60.3,35.2,29.68,NNE,23,5.8,12.1,39,0.00,,,0.00,WSDL version 420,2013-05-23 02:12:00,
2013-05-22 19:17:00,60.1,35.1,29.71,WNW,295,7.0,11.9,39,0.00,,,0.00,WSDL version 420,2013-05-23 02:17:00,
2013-05-22 19:22:00,59.5,35.0,29.71,WNW,298,8.1,15.4,40,0.00,,,0.00,WSDL version 420,2013-05-23 02:22:00,
2013-05-22 19:27:00,59.2,34.9,29.71,NW,304,4.7,15.4,40,0.00,,,0.00,WSDL version 420,2013-05-23 02:27:00,
2013-05-22 19:32:00,59.5,35.2,29.71,NNW,343,2.5,11.4,40,0.00,,,0.00,WSDL version 420,2013-05-23 02:32:00,
2013-05-22 19:37:00,59.0,35.1,29.71,West,281,5.1,8.7,41,0.00,,,0.00,WSDL version 420,2013-05-23 02:37:00,
2013-05-22 19:42:00,58.9,35.1,29.71,WNW,303,2.4,8.7,41,0.00,,,0.00,WSDL version 420,2013-05-23 02:42:00,
2013-05-22 19:47:00,58.5,35.1,29.71,WNW,293,2.5,8.5,41,0.00,,,0.00,WSDL version 420,2013-05-23 02:47:00,
2013-05-22 19:52:00,58.5,35.0,29.71,West,278,4.8,8.9,42,0.00,,,0.00,WSDL version 420,2013-05-23 02:52:00,
2013-05-22 19:57:00,58.2,34.7,29.71,WNW,284,3.2,8.9,41,0.00,,,0.00,WSDL version 420,2013-05-23 02:57:00,
2013-05-22 20:02:00,57.9,34.9,29.71,NW,309,3.0,6.5,42,0.00,,,0.00,WSDL version 420,2013-05-23 03:02:00,
2013-05-22 20:07:00,57.9,35.0,29.71,SW,225,2.2,6.5,42,0.00,,,0.00,WSDL version 420,2013-05-23 03:07:00,
2013-05-22 20:12:00,57.8,34.9,29.71,WSW,245,1.8,4.0,42,0.00,,,0.00,WSDL version 420,2013-05-23 03:12:00,
2013-05-22 20:17:00,57.5,35.0,29.71,WNW,283,4.1,6.0,43,0.00,,,0.00,WSDL version 420,2013-05-23 03:17:00,
2013-05-22 20:22:00,57.1,35.2,29.71,WSW,248,1.2,6.0,43,0.00,,,0.00,WSDL version 420,2013-05-23 03:22:00,
2013-05-22 20:27:00,57.2,34.9,29.71,SW,225,0.5,5.4,43,0.00,,,0.00,WSDL version 420,2013-05-23 03:27:00,
2013-05-22 20:32:00,57.1,35.2,29.71,West,278,1.8,3.6,44,0.00,,,0.00,WSDL version 420,2013-05-23 03:32:00,
2013-05-22 20:37:00,56.8,35.2,29.71,WNW,295,2.0,3.8,45,0.00,,,0.00,WSDL version 420,2013-05-23 03:37:00,
2013-05-22 20:42:00,56.7,35.6,29.71,West,268,0.6,3.8,45,0.00,,,0.00,WSDL version 420,2013-05-23 03:42:00,
2013-05-22 20:47:00,56.8,35.7,29.71,SSW,206,2.1,3.6,45,0.00,,,0.00,WSDL version 420,2013-05-23 03:47:00,
2013-05-22 20:52:00,56.5,35.4,29.71,WSW,248,0.0,3.6,45,0.00,,,0.00,WSDL version 420,2013-05-23 03:52:00,
2013-05-22 20:57:00,56.4,35.6,29.71,SW,236,1.5,2.5,46,0.00,,,0.00,WSDL version 420,2013-05-23 03:57:00,
2013-05-22 21:02:00,56.3,35.3,29.71,SSW,208,1.6,2.7,45,0.00,,,0.00,WSDL version 420,2013-05-23 04:02:00,
2013-05-22 21:07:00,56.2,35.7,29.71,SW,214,0.0,2.7,46,0.00,,,0.00,WSDL version 420,2013-05-23 04:07:00,
2013-05-22 21:12:00,55.9,35.5,29.71,WSW,240,1.9,3.4,46,0.00,,,0.00,WSDL version 420,2013-05-23 04:12:00,
2013-05-22 21:17:00,55.9,35.6,29.71,SSW,203,1.7,3.4,46,0.00,,,0.00,WSDL version 420,2013-05-23 04:17:00,
2013-05-22 21:22:00,55.8,35.4,29.71,SW,225,2.6,4.0,46,0.00,,,0.00,WSDL version 420,2013-05-23 04:22:00,
2013-05-22 21:27:00,55.6,35.4,29.71,SW,220,2.1,4.0,47,0.00,,,0.00,WSDL version 420,2013-05-23 04:27:00,
2013-05-22 21:32:00,55.6,35.7,29.71,SW,214,1.8,3.8,47,0.00,,,0.00,WSDL version 420,2013-05-23 04:32:00,
2013-05-22 21:37:00,55.3,35.6,29.71,WSW,243,1.7,4.7,48,0.00,,,0.00,WSDL version 420,2013-05-23 04:37:00,
2013-05-22 21:42:00,55.2,35.8,29.71,WNW,289,1.0,4.7,48,0.00,,,0.00,WSDL version 420,2013-05-23 04:42:00,
2013-05-22 21:47:00,54.9,35.6,29.71,West,280,3.3,6.0,48,0.00,,,0.00,WSDL version 420,2013-05-23 04:47:00,
2013-05-22 21:52:00,54.8,35.5,29.71,WSW,240,1.4,6.0,48,0.00,,,0.00,WSDL version 420,2013-05-23 04:52:00,
2013-05-22 21:57:00,54.8,35.8,29.71,West,259,0.6,2.9,49,0.00,,,0.00,WSDL version 420,2013-05-23 04:57:00,
2013-05-22 22:02:00,54.7,35.7,29.71,West,260,1.0,3.6,49,0.00,,,0.00,WSDL version 420,2013-05-23 05:02:00,
2013-05-22 22:07:00,54.5,35.8,29.71,NW,309,0.7,3.6,50,0.00,,,0.00,WSDL version 420,2013-05-23 05:07:00,
2013-05-22 22:12:00,54.4,35.6,29.71,SW,215,1.1,3.4,49,0.00,,,0.00,WSDL version 420,2013-05-23 05:12:00,
2013-05-22 22:17:00,54.2,35.5,29.71,West,281,2.6,3.6,49,0.00,,,0.00,WSDL version 420,2013-05-23 05:17:00,
2013-05-22 22:22:00,54.1,35.5,29.71,WSW,245,1.3,3.6,50,0.00,,,0.00,WSDL version 420,2013-05-23 05:22:00,
2013-05-22 22:27:00,54.2,35.7,29.71,SW,233,1.6,3.1,49,0.00,,,0.00,WSDL version 420,2013-05-23 05:27:00,
2013-05-22 22:32:00,54.2,35.5,29.71,SW,219,1.8,3.1,49,0.00,,,0.00,WSDL version 420,2013-05-23 05:32:00,
2013-05-22 22:37:00,54.1,35.5,29.71,SW,215,1.4,2.9,49,0.00,,,0.00,WSDL version 420,2013-05-23 05:37:00,
2013-05-22 22:42:00,54.0,35.7,29.71,SW,215,1.4,2.9,50,0.00,,,0.00,WSDL version 420,2013-05-23 05:42:00,
2013-05-22 22:47:00,53.9,35.6,29.71,SSW,213,2.3,3.4,50,0.00,,,0.00,WSDL version 420,2013-05-23 05:47:00,
2013-05-22 22:52:00,53.6,35.4,29.71,SW,217,2.3,3.4,50,0.00,,,0.00,WSDL version 420,2013-05-23 05:52:00,
2013-05-22 22:57:00,53.4,35.4,29.71,SW,235,2.1,3.4,51,0.00,,,0.00,WSDL version 420,2013-05-23 05:57:00,
2013-05-22 23:02:00,53.2,35.6,29.71,SW,231,3.5,4.9,51,0.00,,,0.00,WSDL version 420,2013-05-23 06:02:00,
2013-05-22 23:07:00,53.1,35.4,29.71,WSW,240,2.1,4.9,51,0.00,,,0.00,WSDL version 420,2013-05-23 06:07:00,
2013-05-22 23:12:00,53.1,35.5,29.71,WSW,238,2.8,3.8,52,0.00,,,0.00,WSDL version 420,2013-05-23 06:12:00,
2013-05-22 23:17:00,53.0,35.8,29.74,SSW,205,1.3,3.8,52,0.00,,,0.00,WSDL version 420,2013-05-23 06:17:00,
2013-05-22 23:22:00,52.9,35.8,29.74,SW,220,2.0,3.6,52,0.00,,,0.00,WSDL version 420,2013-05-23 06:22:00,
2013-05-22 23:27:00,52.9,35.8,29.74,SSW,212,2.3,3.8,52,0.00,,,0.00,WSDL version 420,2013-05-23 06:27:00,
2013-05-22 23:32:00,52.8,35.6,29.71,SW,215,2.1,3.8,52,0.00,,,0.00,WSDL version 420,2013-05-23 06:32:00,
2013-05-22 23:37:00,52.7,35.6,29.71,SW,218,2.9,5.4,52,0.00,,,0.00,WSDL version 420,2013-05-23 06:37:00,
2013-05-22 23:42:00,52.5,35.4,29.71,SSW,208,3.2,5.4,52,0.00,,,0.00,WSDL version 420,2013-05-23 06:42:00,
2013-05-22 23:47:00,52.3,35.7,29.71,SSW,210,2.5,4.7,53,0.00,,,0.00,WSDL version 420,2013-05-23 06:47:00,
2013-05-22 23:52:00,52.3,35.8,29.71,SSW,200,3.2,4.7,54,0.00,,,0.00,WSDL version 420,2013-05-23 06:52:00,
2013-05-22 23:57:00,52.2,36.0,29.71,SSW,205,3.0,6.0,54,0.00,,,0.00,WSDL version 420,2013-05-23 06:57:00,